Location: Moscow
(55.7500°N, 37.5830°E)
Time: 00:06:47
(UTC+03:00)

COSMOS 2251 DEB - Pass Details

Date: 12 July 2022
Orbit: 738 x 847 km, 74.1° (Epoch: 17 August)

Event Time Altitude Azimuth Distance (km) Brightness Sun altitude
Rises 02:14:07 0° 332° (NNW) 3,226 ? -9.5°
Reaches altitude 10° 02:16:33 10° 336° (NNW) 2,285 ? -9.3°
Maximum altitude 02:21:39 58° 56° (NE) 865 ? -9.0°
Drops below altitude 10° 02:26:39 10° 136° (SE) 2,245 ? -8.7°
Sets 02:29:01 0° 140° (SE) 3,165 ? -8.6°
